[[{"header":{"parameterUnit":"m.s-1","parameterCategory":1,"la1":30.2991,"la2":30.254,"lo1":-89.0895,"lo2":-89.0444,"dy":0.0017,"dx":0.0017,"nx":28,"ny":28,"refTime":"2024-05-27T21:00:00:Z","depth":0,"parameterNumber":2,"parameterNumberName":"U-component_of_WINDS"},"data":[0,0,0,0,0,0,0,0,0,0,0,0,0,0,0,0,0,0,0,0,0,0,0,0,0,0,0,0,0,0,0,0,0,0,0,0,0,0,0,0,0,0,0,0,0,0,0,0,0,0,0,0,0,0,0,0,0,0,2.1157,2.1158,0,2.1214,2.1215,2.1216,2.1145,2.1142,2.1139,2.1137,2.1198,2.1201,2.1205,0,0,0,0,0,0,0,0,0,0,0,0,0,2.0989,2.0992,2.1157,2.1158,2.1158,2.1214,2.1215,2.1216,2.1145,2.1142,2.1139,2.1136,2.1196,2.1201,2.1206,0,0,0,0,0,0,0,0,0,0,0,0,0,2.1056,2.0993,2.1157,2.113,2.1128,2.1214,2.1215,2.1216,2.1146,2.1142,2.1138,2.1134,2.1195,2.1201,2.1206,2.1322,0,0,2.1225,2.1228,0,0,0,0,0,0,0,0,2.1052,2.1062,2.1133,2.1132,2.113,2.1168,2.1178,2.1252,2.1147,2.1139,2.1137,2.1132,2.1191,2.1197,2.1217,2.1325,2.1328,2.1226,2.1229,2.1232,2.1234,0,0,0,0,0,0,0,2.1047,2.1059,2.118,2.1134,2.1132,2.1116,2.1121,2.1191,2.1186,2.1139,2.1134,2.1142,2.1189,2.1211,2.1217,2.1329,2.1225,2.1231,2.1235,2.1237,2.1537,2.1541,0,0,0,0,0,0,2.1046,2.1056,2.1178,2.1181,2.108,2.1122,2.1128,2.116,2.1185,2.1186,2.1145,2.1139,2.1202,2.121,2.1219,2.1358,2.1232,2.1237,2.1241,2.1533,2.1538,2.1542,0,0,0,0,0,0,2.1042,2.1057,2.1175,2.1117,2.1131,2.1129,2.1166,2.1163,2.1184,2.119,2.1189,2.1168,2.12,2.1211,2.1297,2.1359,2.124,2.1246,2.1527,2.1534,2.154,2.1635,0,0,0,0,0,0,2.1038,2.1056,2.11,2.1119,2.1134,2.1252,2.117,2.1167,2.1195,2.1187,2.1211,2.1211,2.1197,2.1289,2.1304,2.1365,2.125,2.1522,2.153,2.1538,2.1626,2.1644,2.1659,0,0,0,0,0,2.1032,2.1124,2.1102,2.1117,2.1188,2.1256,2.1265,2.1247,2.12,2.1244,2.1248,2.121,2.135,2.1298,2.1314,2.1378,2.1518,2.1528,2.1537,2.1619,2.164,2.1658,0,0,0,0,0,0,2.1112,2.1126,2.1102,2.1203,2.1229,2.1244,2.1298,2.127,2.131,2.13,2.1276,2.1283,2.1375,2.1385,2.1328,2.1493,2.1426,2.144,2.1483,2.1503,2.1519,2.1515,2.1256,0,0,0,0,0,2.1142,2.1195,2.1204,2.1292,2.1306,2.1301,2.1329,2.1313,2.1339,2.135,2.136,2.1387,2.1437,2.147,2.1517,2.1627,2.1632,2.1679,2.1696,2.1709,2.1721,2.1782,2.1803,2.1574,2.1574,2.1574,0,0,2.1203,2.1217,2.1252,2.1309,2.1327,2.1383,2.131,2.1372,2.1414,2.1359,2.1442,2.1451,2.148,2.1579,2.1623,2.159,2.1785,2.1721,2.1732,2.1737,2.1794,2.1815,2.1835,2.1581,2.158,2.1579,0,0,2.1344,2.1359,2.1435,2.1455,2.1484,2.1479,2.1498,2.1518,2.1521,2.1603,2.1564,2.1614,2.17,2.1723,2.1746,2.1897,2.1865,2.1913,2.1998,2.2057,2.2075,2.2091,2.2146,2.2166,2.1925,2.1925,2.1925,0,2.1417,2.1499,2.1478,2.1543,2.157,2.1523,2.16,2.1621,2.1663,2.1683,2.1645,2.1754,2.177,2.1875,2.1912,2.1932,2.1953,2.191,2.2074,2.209,2.2105,2.2157,2.2177,2.1931,2.193,2.1929,2.1929,0,2.1588,2.1646,2.1704,2.1746,2.1779,2.1851,2.1841,2.1877,2.1859,2.1859,2.1945,2.1962,2.2012,2.2036,2.2018,2.2139,2.2118,2.2078,2.2011,2.2132,2.2181,2.2201,2.1939,2.1937,2.1935,2.1934,0,0,2.178,2.1811,2.1832,2.1851,2.188,2.1925,2.1995,2.2043,2.2075,2.2107,2.2165,2.224,2.2204,2.223,2.2215,2.2267,2.2387,2.2221,2.2221,2.2252,2.2523,2.2553,2.2577,2.2366,2.237,2.2373,2.2521,0,2.1922,2.2042,2.2025,2.2141,2.2195,2.2152,2.2213,2.2238,2.2241,2.2288,2.229,2.2344,2.2291,2.2307,2.2357,2.2362,2.2442,2.2351,2.2421,2.2424,2.2416,2.2602,2.2634,2.2773,2.254,2.2543,2.2545,0,2.2103,2.2141,2.2262,2.2284,2.2306,2.2361,2.2405,2.245,2.2478,2.2476,2.2506,2.2482,2.2553,2.2485,2.2583,2.2522,2.255,2.2558,2.2562,2.2569,2.2492,2.2614,2.2816,2.2838,2.2575,2.2572,2.257,0,2.2232,2.2314,2.2397,2.2415,2.2442,2.2482,2.2495,2.2519,2.255,2.2588,2.2608,2.2655,2.2681,2.2718,2.2708,2.2658,2.2809,2.2739,2.281,2.2811,2.2844,2.2842,2.3055,2.2862,2.2861,2.2861,2.286,0,2.2392,2.2468,2.2456,2.2507,2.2592,2.2573,2.2657,2.2665,2.2687,2.2741,2.2706,2.2757,2.274,2.279,2.2783,2.2866,2.2878,2.2879,2.2876,2.2883,2.2883,2.2901,2.2891,2.2866,2.2865,2.2864,2.2863,0,2.2551,2.2545,2.2634,2.2652,2.2659,2.2721,2.2737,2.2786,2.2786,2.2854,2.2869,2.2869,2.2927,2.292,2.2984,2.2979,2.3083,2.3069,2.3074,2.3071,2.3143,2.3136,2.3375,2.3405,2.3192,2.3194,2.3196,0,2.2653,2.2711,2.2736,2.2769,2.2786,2.2839,2.287,2.2854,2.2888,2.2926,2.2971,2.3025,2.3067,2.3162,2.3168,2.3218,2.3204,2.3285,2.3212,2.3217,2.3207,2.3204,2.321,2.3299,2.3301,2.3303,2.3305,0,2.2837,2.2832,2.2877,2.2924,2.2962,2.2997,2.3029,2.3058,2.3046,2.3086,2.3144,2.3177,2.3243,2.3298,2.3345,2.336,2.3332,2.3328,2.3347,2.3354,2.3355,2.3357,2.3114,2.3323,2.3321,2.332,2.3319,2.3318,2.2971,2.3021,2.3047,2.31,2.3122,2.3153,2.3201,2.3207,2.3255,2.3307,2.3295,2.3362,2.3389,2.345,2.3469,2.3521,2.3492,2.352,2.3527,2.3534,2.3543,2.3347,2.353,2.3529,2.3529,2.3528,2.3528,0,2.3153,2.3168,2.3217,2.3263,2.3305,2.3274,2.3308,2.3346,2.3405,2.3433,2.3476,2.3544,2.3597,2.3609,2.366,2.37,2.3688,2.3714,2.3711,2.3715,2.3566,2.3544,2.3723,2.3723,2.3723,2.3723,2.3722,2.3722,2.3253,2.3336,2.3334,2.3429,2.3443,2.3507,2.353,2.3559,2.3582,2.3659,2.3703,2.371,2.3732,2.3785,2.3833,2.3835,2.3856,2.3888,2.3885,2.3745,2.3725,2.3707,2.3687,2.3892,2.3892,2.403,2.4031,2.4032]},{"header":{"parameterUnit":"m.s-1","parameterCategory":1,"la1":30.2991,"la2":30.254,"lo1":-89.0895,"lo2":-89.0444,"dy":0.0017,"dx":0.0017,"nx":28,"ny":28,"refTime":"2024-05-27T21:00:00:Z","depth":0,"parameterNumber":3,"parameterNumberName":"V-component_of_WINDS"},"data":[0,0,0,0,0,0,0,0,0,0,0,0,0,0,0,0,0,0,0,0,0,0,0,0,0,0,0,0,0,0,0,0,0,0,0,0,0,0,0,0,0,0,0,0,0,0,0,0,0,0,0,0,0,0,0,0,0,0,-0.8083,-0.8082,0,-0.8069,-0.8069,-0.8069,-0.8063,-0.8063,-0.8063,-0.8063,-0.8047,-0.8047,-0.8046,0,0,0,0,0,0,0,0,0,0,0,0,0,-0.8102,-0.8101,-0.8083,-0.8082,-0.8082,-0.8069,-0.8069,-0.8069,-0.8063,-0.8063,-0.8063,-0.8063,-0.8047,-0.8047,-0.8046,0,0,0,0,0,0,0,0,0,0,0,0,0,-0.8091,-0.8101,-0.8083,-0.8078,-0.8077,-0.8069,-0.8069,-0.8069,-0.8063,-0.8063,-0.8063,-0.8063,-0.8048,-0.8047,-0.8046,-0.8041,0,0,-0.8044,-0.8044,0,0,0,0,0,0,0,0,-0.8092,-0.8091,-0.8079,-0.8078,-0.8078,-0.8068,-0.807,-0.8059,-0.8063,-0.8068,-0.8063,-0.8063,-0.8054,-0.8053,-0.805,-0.8041,-0.804,-0.8044,-0.8044,-0.8043,-0.8043,0,0,0,0,0,0,0,-0.8093,-0.8091,-0.8077,-0.8079,-0.8078,-0.8076,-0.8074,-0.8068,-0.8061,-0.8068,-0.8067,-0.8066,-0.8054,-0.8051,-0.805,-0.804,-0.8044,-0.8044,-0.8043,-0.8043,-0.8025,-0.8025,0,0,0,0,0,0,-0.8094,-0.8092,-0.8078,-0.8077,-0.8085,-0.8075,-0.8074,-0.8071,-0.8061,-0.806,-0.8066,-0.8066,-0.8052,-0.805,-0.8049,-0.8043,-0.8043,-0.8043,-0.8042,-0.8025,-0.8025,-0.8025,0,0,0,0,0,0,-0.8095,-0.8093,-0.8078,-0.8084,-0.8082,-0.8075,-0.8072,-0.8071,-0.8068,-0.806,-0.8058,-0.8064,-0.8052,-0.805,-0.8043,-0.8042,-0.8042,-0.8042,-0.8025,-0.8025,-0.8025,-0.803,0,0,0,0,0,0,-0.8095,-0.8093,-0.8092,-0.8084,-0.8082,-0.8073,-0.8072,-0.807,-0.8067,-0.8066,-0.8058,-0.8056,-0.8052,-0.8044,-0.8043,-0.8041,-0.8041,-0.8025,-0.8025,-0.8025,-0.803,-0.803,-0.803,0,0,0,0,0,-0.8096,-0.8093,-0.8092,-0.809,-0.808,-0.8073,-0.8072,-0.8067,-0.8067,-0.8065,-0.806,-0.8057,-0.8042,-0.8044,-0.8042,-0.804,-0.8026,-0.8025,-0.8025,-0.803,-0.803,-0.803,0,0,0,0,0,0,-0.81,-0.8092,-0.809,-0.8085,-0.808,-0.8072,-0.807,-0.8067,-0.8062,-0.8062,-0.8055,-0.8053,-0.8047,-0.8043,-0.8044,-0.8035,-0.8034,-0.8033,-0.8038,-0.8038,-0.8038,-0.8039,-0.8041,0,0,0,0,0,-0.8101,-0.8096,-0.8089,-0.8085,-0.8083,-0.8077,-0.8074,-0.8071,-0.8065,-0.8062,-0.8057,-0.8051,-0.8045,-0.8041,-0.8035,-0.8029,-0.8027,-0.8027,-0.8027,-0.8027,-0.8026,-0.8023,-0.8023,-0.8025,-0.8025,-0.8025,0,0,-0.8101,-0.8096,-0.8094,-0.8086,-0.8082,-0.8077,-0.8075,-0.807,-0.8067,-0.8061,-0.8055,-0.8051,-0.8043,-0.8037,-0.8034,-0.8033,-0.8025,-0.8027,-0.8027,-0.8026,-0.8023,-0.8022,-0.8022,-0.8025,-0.8025,-0.8025,0,0,-0.81,-0.8096,-0.8092,-0.8088,-0.8082,-0.8078,-0.8077,-0.8069,-0.8067,-0.806,-0.8056,-0.8051,-0.8042,-0.8037,-0.8033,-0.803,-0.8027,-0.8028,-0.8028,-0.8025,-0.8025,-0.8025,-0.8023,-0.8023,-0.8028,-0.8028,-0.8028,0,-0.8101,-0.8095,-0.809,-0.8086,-0.8082,-0.8078,-0.8074,-0.807,-0.8062,-0.8059,-0.8059,-0.8046,-0.8041,-0.8034,-0.8033,-0.803,-0.8028,-0.8029,-0.8025,-0.8025,-0.8025,-0.8023,-0.8023,-0.8028,-0.8028,-0.8028,-0.8028,0,-0.8096,-0.8092,-0.809,-0.8083,-0.8079,-0.8075,-0.8069,-0.8066,-0.8063,-0.8059,-0.8052,-0.8046,-0.8039,-0.8037,-0.8033,-0.8028,-0.8028,-0.8027,-0.8026,-0.8025,-0.8024,-0.8023,-0.8028,-0.8028,-0.8028,-0.8028,0,0,-0.8097,-0.8088,-0.8087,-0.8084,-0.8077,-0.8073,-0.8068,-0.8062,-0.8059,-0.8054,-0.8049,-0.8041,-0.804,-0.8035,-0.8032,-0.8028,-0.8026,-0.8027,-0.8027,-0.8027,-0.802,-0.8021,-0.8021,-0.8024,-0.8024,-0.8024,-0.8021,0,-0.8095,-0.8087,-0.8083,-0.8077,-0.8072,-0.8068,-0.8064,-0.8059,-0.8055,-0.805,-0.8046,-0.804,-0.8038,-0.8036,-0.8033,-0.8027,-0.8025,-0.8027,-0.802,-0.8019,-0.8022,-0.802,-0.8022,-0.8019,-0.802,-0.802,-0.802,0,-0.8091,-0.8086,-0.808,-0.8073,-0.8071,-0.8068,-0.8061,-0.8057,-0.8051,-0.8048,-0.8044,-0.804,-0.8034,-0.8034,-0.8026,-0.8028,-0.8024,-0.8021,-0.8021,-0.802,-0.802,-0.8019,-0.8018,-0.8017,-0.8019,-0.8019,-0.8019,0,-0.8092,-0.8084,-0.8079,-0.8076,-0.8069,-0.8066,-0.8063,-0.8057,-0.8053,-0.8048,-0.8045,-0.8039,-0.8035,-0.803,-0.8025,-0.8025,-0.8017,-0.8016,-0.8014,-0.8014,-0.8012,-0.8013,-0.801,-0.801,-0.801,-0.801,-0.801,0,-0.809,-0.8086,-0.8079,-0.8076,-0.8072,-0.8067,-0.8062,-0.8058,-0.8053,-0.8049,-0.8045,-0.8041,-0.8034,-0.8029,-0.8024,-0.8018,-0.8017,-0.8014,-0.8013,-0.8014,-0.8015,-0.8012,-0.8012,-0.801,-0.801,-0.801,-0.801,0,-0.809,-0.8086,-0.808,-0.8073,-0.8072,-0.8068,-0.8062,-0.8059,-0.8055,-0.805,-0.8048,-0.8041,-0.8035,-0.8029,-0.8021,-0.8018,-0.8012,-0.801,-0.8014,-0.8013,-0.8012,-0.8012,-0.8007,-0.8006,-0.8007,-0.8007,-0.8007,0,-0.8089,-0.8086,-0.8079,-0.8076,-0.8073,-0.8068,-0.8065,-0.806,-0.8056,-0.8049,-0.8047,-0.804,-0.8035,-0.8025,-0.8019,-0.8013,-0.8011,-0.801,-0.801,-0.8011,-0.8011,-0.8011,-0.8011,-0.801,-0.801,-0.801,-0.801,0,-0.8087,-0.8085,-0.8081,-0.8075,-0.8072,-0.8067,-0.8062,-0.806,-0.8054,-0.805,-0.8044,-0.804,-0.8032,-0.8026,-0.8018,-0.8014,-0.8011,-0.801,-0.8009,-0.8011,-0.8013,-0.8011,-0.8014,-0.801,-0.801,-0.801,-0.801,-0.801,-0.8086,-0.8084,-0.8078,-0.8074,-0.807,-0.8065,-0.8062,-0.8058,-0.8053,-0.8046,-0.8043,-0.8037,-0.8031,-0.8021,-0.8017,-0.8012,-0.8011,-0.801,-0.8009,-0.8009,-0.8009,-0.8014,-0.801,-0.801,-0.801,-0.801,-0.801,0,-0.8084,-0.8081,-0.8077,-0.807,-0.8067,-0.8065,-0.8059,-0.8056,-0.8051,-0.8046,-0.8041,-0.8034,-0.8028,-0.8021,-0.8015,-0.8012,-0.801,-0.801,-0.801,-0.8009,-0.801,-0.8012,-0.8011,-0.8011,-0.8011,-0.8011,-0.8011,-0.8011,-0.8083,-0.8078,-0.8075,-0.8068,-0.8065,-0.8059,-0.8056,-0.8052,-0.8048,-0.8041,-0.8036,-0.8032,-0.8026,-0.8019,-0.8013,-0.8012,-0.8009,-0.801,-0.8007,-0.8009,-0.8009,-0.8009,-0.801,-0.8009,-0.8009,-0.8006,-0.8006,-0.8006]}]]